BELINTERSAT-1

Last updated on Tue Sep 22 2026 00:03:13 GMT+0000 (Coordinated Universal Time)

1 41238U 16001A 26264.42788374 .00000103 00000+0 00000+0 0 9991 2 41238 0.0400 74.9149 0000642 31.0016 99.9294 1.00271074 39209
UTC large
Height (km)
Speed (km/s)
/
Latitude / Longitude
Inclination (degrees)
Orbital Period (minutes)
Azimuth
Elevation
Range (km)
Doppler Factor

Next 0 passes for location: London (51.5072 / 0.1276)

No passes found over London.
BELINTERSAT-1